Location: Howard City Library
(37.4684°N, 96.2639°W)
Time: 07:39:53
(UTC+00:00)

STARLINK-66 - Pass Details

Date: 18 February 2020
Orbit: 394 x 396 km, 53.0° (Epoch: 31 March)

Event Time Altitude Azimuth Distance (km) Brightness Sun altitude
Rises 00:19:58 0° 212° (SSW) 2,282 7.5 -3.5°
Reaches altitude 10° 00:22:04 10° 205° (SSW) 1,430 6.3 -3.9°
Maximum altitude 00:25:07 41° 133° (SE) 584 3.5 -4.5°
Drops below altitude 10° 00:28:11 10° 61° (ENE) 1,441 5.2 -5.1°
Enters shadow 00:29:08 - 57° (ENE) 1,820 5.7 -5.3°
